• In Belgien
  • Länderverzeichnis
  • Für 7 Tage
  • Wassertemperatur
  • Satellitenkarten
  • Wetterkarte
  • Widgets
  • user-avatar
    Anmelden

    Stündliche Wetter Beringen

    Heute, 18 Januar, Donnerstag

    Zeit Temperatur Niederschläge Wind Luftdruck Luftfeuchtigkeit
    00:00 +2°C° 0 mm 5 m/S 751 mmHg 82%
    01:00 +2°C° 0,7 mm 7 m/S 750 mmHg 83%
    02:00 +2°C° 0,7 mm 8 m/S 748 mmHg 83%
    03:00 +2°C° 0,7 mm 10 m/S 746 mmHg 84%
    04:00 +3°C° 0,5 mm 10 m/S 745 mmHg 83%
    05:00 +6°C° 0,5 mm 11 m/S 743 mmHg 83%
    06:00 +4°C° 0 mm 11 m/S 741 mmHg 80%
    07:00 +5°C° 0,2 mm 12 m/S 741 mmHg 76%
    08:00 +5°C° 0,2 mm 13 m/S 741 mmHg 72%
    09:00 +6°C° 0,2 mm 14 m/S 741 mmHg 68%
    10:00 +5°C° 0,1 mm 13 m/S 743 mmHg 67%
    11:00 +5°C° 0,1 mm 12 m/S 744 mmHg 66%
    12:00 +4°C° 0,1 mm 11 m/S 745 mmHg 66%
    13:00 +5°C° 0,1 mm 10 m/S 746 mmHg 67%
    14:00 +5°C° 0,1 mm 8 m/S 747 mmHg 67%
    15:00 +4°C° 0,1 mm 7 m/S 748 mmHg 68%
    16:00 +4°C° 0,2 mm 6 m/S 748 mmHg 73%
    17:00 +3°C° 0,2 mm 5 m/S 748 mmHg 77%
    18:00 +4°C° 0,2 mm 3 m/S 748 mmHg 82%
    19:00 +4°C° 0,4 mm 4 m/S 748 mmHg 83%
    20:00 +4°C° 0,4 mm 4 m/S 748 mmHg 83%
    21:00 +4°C° 0,4 mm 4 m/S 748 mmHg 84%
    22:00 +4°C° 0,3 mm 4 m/S 749 mmHg 83%
    23:00 +2°C° 0,3 mm 5 m/S 749 mmHg 83%

    Morgen, 19 Januar, Freitag

    Zeit Temperatur Niederschläge Wind Luftdruck Luftfeuchtigkeit
    00:00 +2°C° 0,3 mm 5 m/S 749 mmHg 82%
    01:00 +2°C° 0 mm 5 m/S 750 mmHg 82%
    02:00 +2°C° 0 mm 5 m/S 750 mmHg 83%
    03:00 +1°C° 0 mm 5 m/S 750 mmHg 83%
    04:00 +1°C° 0 mm 5 m/S 751 mmHg 83%
    05:00 +1°C° 0 mm 5 m/S 751 mmHg 84%
    06:00 +1°C° 0 mm 5 m/S 752 mmHg 84%
    07:00 +1°C° 0 mm 5 m/S 752 mmHg 84%
    08:00 +1°C° 0 mm 5 m/S 753 mmHg 83%
    09:00 +1°C° 0 mm 5 m/S 753 mmHg 82%
    10:00 +2°C° 0 mm 5 m/S 753 mmHg 78%
    11:00 +3°C° 0 mm 6 m/S 754 mmHg 73%
    12:00 +3°C° 0 mm 6 m/S 754 mmHg 69%
    13:00 +3°C° 0,1 mm 6 m/S 754 mmHg 69%
    14:00 +3°C° 0,1 mm 5 m/S 754 mmHg 69%
    15:00 +3°C° 0,1 mm 5 m/S 754 mmHg 69%
    16:00 +3°C° 0,2 mm 4 m/S 754 mmHg 72%
    17:00 +3°C° 0,2 mm 4 m/S 754 mmHg 75%
    18:00 +1°C° 0,2 mm 4 m/S 754 mmHg 78%
    19:00 +1°C° 0,2 mm 4 m/S 754 mmHg 79%
    20:00 +1°C° 0,2 mm 5 m/S 754 mmHg 80%
    21:00 +1°C° 0,2 mm 5 m/S 754 mmHg 81%
    22:00 +1°C° 0,1 mm 5 m/S 754 mmHg 81%
    23:00 0°C° 0,1 mm 5 m/S 754 mmHg 82%

    übermorgen, 20 Januar, Samstag

    Zeit Temperatur Niederschläge Wind Luftdruck Luftfeuchtigkeit
    00:00 0°C° 0,1 mm 5 m/S 754 mmHg 82%
    01:00 0°C° 0 mm 5 m/S 754 mmHg 82%
    02:00 0°C° 0 mm 5 m/S 754 mmHg 83%
    03:00 0°C° 0 mm 4 m/S 753 mmHg 84%
    04:00 -1°C° 0 mm 4 m/S 753 mmHg 85%
    05:00 -1°C° 0 mm 4 m/S 753 mmHg 86%
    06:00 -1°C° 0 mm 4 m/S 753 mmHg 88%
    07:00 0°C° 0 mm 4 m/S 752 mmHg 88%
    08:00 +1°C° 0 mm 3 m/S 752 mmHg 88%
    09:00 +1°C° 0 mm 3 m/S 752 mmHg 88%
    10:00 +2°C° 0,1 mm 3 m/S 751 mmHg 85%
    11:00 +3°C° 0,1 mm 3 m/S 751 mmHg 82%
    12:00 +3°C° 0,1 mm 3 m/S 751 mmHg 79%
    13:00 +3°C° 0,1 mm 3 m/S 751 mmHg 79%
    14:00 +3°C° 0,1 mm 3 m/S 751 mmHg 79%
    15:00 +3°C° 0,1 mm 3 m/S 751 mmHg 79%
    16:00 +3°C° 0,1 mm 3 m/S 752 mmHg 81%
    17:00 +2°C° 0,1 mm 3 m/S 753 mmHg 83%
    18:00 0°C° 0,1 mm 4 m/S 754 mmHg 85%
    19:00 +1°C° 0 mm 3 m/S 754 mmHg 85%
    20:00 +1°C° 0 mm 3 m/S 755 mmHg 85%
    21:00 0°C° 0 mm 3 m/S 756 mmHg 86%
    22:00 0°C° 0 mm 3 m/S 757 mmHg 86%
    23:00 0°C° 0 mm 3 m/S 758 mmHg 86%

    21 Januar, Sonntag

    Zeit Temperatur Niederschläge Wind Luftdruck Luftfeuchtigkeit
    00:00 0°C° 0 mm 3 m/S 758 mmHg 86%
    01:00 0°C° 0 mm 3 m/S 759 mmHg 86%
    02:00 +1°C° 0 mm 2 m/S 759 mmHg 86%
    03:00 +1°C° 0 mm 2 m/S 759 mmHg 86%
    04:00 +1°C° 0 mm 2 m/S 759 mmHg 86%
    05:00 +1°C° 0 mm 2 m/S 760 mmHg 86%
    06:00 +2°C° 0 mm 2 m/S 760 mmHg 86%
    07:00 +1°C° 0,1 mm 3 m/S 760 mmHg 86%
    08:00 +1°C° 0,1 mm 3 m/S 760 mmHg 85%
    09:00 +1°C° 0,1 mm 3 m/S 760 mmHg 84%
    10:00 0°C° 0,5 mm 4 m/S 759 mmHg 85%
    11:00 +1°C° 0,5 mm 4 m/S 759 mmHg 85%
    12:00 +1°C° 0,5 mm 4 m/S 759 mmHg 86%
    13:00 +1°C° 0,6 mm 5 m/S 758 mmHg 86%
    14:00 +1°C° 0,6 mm 5 m/S 757 mmHg 86%
    15:00 +1°C° 0,6 mm 6 m/S 757 mmHg 87%
    16:00 +1°C° 1,5 mm 5 m/S 756 mmHg 89%
    17:00 +2°C° 1,5 mm 5 m/S 756 mmHg 91%
    18:00 +2°C° 1,5 mm 5 m/S 755 mmHg 93%
    19:00 +4°C° 2,6 mm 4 m/S 755 mmHg 95%
    20:00 +5°C° 2,6 mm 4 m/S 755 mmHg 96%
    21:00 +6°C° 2,6 mm 4 m/S 755 mmHg 97%
    22:00 +7°C° 0,7 mm 4 m/S 755 mmHg 97%
    23:00 +7°C° 0,7 mm 5 m/S 755 mmHg 96%

    22 Januar, Montag

    Zeit Temperatur Niederschläge Wind Luftdruck Luftfeuchtigkeit
    00:00 +8°C° 0,7 mm 5 m/S 755 mmHg 96%
    01:00 +8°C° 0,1 mm 5 m/S 756 mmHg 96%
    02:00 +8°C° 0,1 mm 4 m/S 757 mmHg 96%
    03:00 +8°C° 0,1 mm 4 m/S 757 mmHg 97%
    04:00 +9°C° 0,1 mm 3 m/S 757 mmHg 97%
    05:00 +9°C° 0,1 mm 3 m/S 758 mmHg 98%
    06:00 +9°C° 0,1 mm 2 m/S 758 mmHg 98%
    07:00 +9°C° 0,1 mm 2 m/S 759 mmHg 98%
    08:00 +9°C° 0,1 mm 2 m/S 759 mmHg 98%
    09:00 +9°C° 0,1 mm 2 m/S 759 mmHg 98%
    10:00 +9°C° 0,1 mm 2 m/S 759 mmHg 97%
    11:00 +10°C° 0,1 mm 2 m/S 759 mmHg 97%
    12:00 +10°C° 0,1 mm 3 m/S 759 mmHg 96%
    13:00 +10°C° 0,5 mm 3 m/S 759 mmHg 96%
    14:00 +10°C° 0,5 mm 4 m/S 759 mmHg 96%
    15:00 +10°C° 0,5 mm 4 m/S 759 mmHg 96%
    16:00 +10°C° 0,2 mm 5 m/S 759 mmHg 94%
    17:00 +10°C° 0,2 mm 5 m/S 759 mmHg 93%
    18:00 +10°C° 0,2 mm 6 m/S 759 mmHg 91%
    19:00 +10°C° 0,1 mm 6 m/S 759 mmHg 91%
    20:00 +10°C° 0,1 mm 6 m/S 759 mmHg 90%
    21:00 +11°C° 0,1 mm 6 m/S 759 mmHg 90%
    22:00 +11°C° 0,2 mm 7 m/S 759 mmHg 89%
    23:00 +11°C° 0,2 mm 7 m/S 759 mmHg 88%

    23 Januar, Dienstag

    Zeit Temperatur Niederschläge Wind Luftdruck Luftfeuchtigkeit
    00:00 +11°C° 0,2 mm 7 m/S 759 mmHg 86%
    01:00 +11°C° 0,1 mm 7 m/S 759 mmHg 87%
    02:00 +11°C° 0,1 mm 7 m/S 759 mmHg 88%
    03:00 +10°C° 0,1 mm 7 m/S 759 mmHg 88%
    04:00 +10°C° 0,1 mm 7 m/S 760 mmHg 88%
    05:00 +10°C° 0,1 mm 7 m/S 760 mmHg 88%
    06:00 +10°C° 0,1 mm 7 m/S 760 mmHg 87%
    07:00 +10°C° 0 mm 7 m/S 761 mmHg 86%
    08:00 +10°C° 0 mm 7 m/S 761 mmHg 84%
    09:00 +10°C° 0 mm 7 m/S 762 mmHg 82%
    10:00 +10°C° 0,1 mm 7 m/S 762 mmHg 82%
    11:00 +11°C° 0,1 mm 7 m/S 763 mmHg 82%
    12:00 +11°C° 0,1 mm 7 m/S 763 mmHg 81%
    13:00 +11°C° 0,1 mm 6 m/S 763 mmHg 81%
    14:00 +12°C° 0,1 mm 5 m/S 764 mmHg 81%
    15:00 +12°C° 0,1 mm 4 m/S 764 mmHg 81%
    16:00 +11°C° 0,1 mm 4 m/S 764 mmHg 85%
    17:00 +10°C° 0,1 mm 3 m/S 764 mmHg 88%
    18:00 +9°C° 0,1 mm 3 m/S 765 mmHg 92%
    19:00 +9°C° 0 mm 3 m/S 765 mmHg 92%
    20:00 +9°C° 0 mm 3 m/S 765 mmHg 93%
    21:00 +8°C° 0 mm 4 m/S 765 mmHg 93%
    22:00 +8°C° 0 mm 4 m/S 765 mmHg 93%
    23:00 +8°C° 0 mm 4 m/S 765 mmHg 93%
    Mehr zeigen